Lapse_Rate
6.1 6.0 6.0 6.0 6.0 5.9 5.7 5.6 5.6 5.5 5.5 5.6 5.7 5.7 5.8 5.9 6.2 6.6 6.9 6.9 6.8 6.3 6.8 7.0 7.2 7.4 6.9 6.6 6.4 6.1 5.2 5.0 6.0 6.3 6.4 6.6 6.6 6.6 6.5 6.3 6.1 5.9 5.9 6.1 6.2
6.1 6.2 6.1 6.0 5.9 6.0 5.9 5.8 5.7 5.5 5.6 5.9 6.2 6.3 6.4 6.5 6.6 7.0 6.8 6.6 6.6 6.5 6.4 6.8 6.9 7.1 7.0 6.8 6.4 6.1 5.5 5.6 6.6 6.4 6.1 6.1 6.3 6.3 6.4 6.4 6.2 6.1 6.0 6.0 6.0
6.2 6.1 6.1 6.1 6.1 5.9 5.6 5.4 5.3 5.4 5.8 5.9 6.4 6.8 6.8 7.0 7.0 7.2 7.2 7.2 6.9 6.6 6.5 6.6 6.4 6.2 6.6 6.7 6.6 6.5 6.2 6.7 6.8 6.4 6.2 5.8 6.1 6.2 6.2 6.4 6.4 6.1 5.9 5.9 5.9
6.1 6.1 5.9 5.8 5.7 5.5 5.4 5.6 5.9 6.4 6.7 6.9 7.0 7.1 6.9 6.8 6.9 7.2 7.2 7.6 7.5 7.6 6.8 6.4 6.4 6.1 5.8 6.2 6.5 6.5 6.5 6.6 6.6 6.3 6.2 5.9 5.8 6.0 6.1 6.2 6.3 6.1 5.9 5.9 6.1
6.1 5.8 5.6 5.3 5.4 5.2 5.4 6.0 6.5 6.7 6.5 6.9 7.0 6.8 7.1 7.2 8.1 7.4 7.0 7.3 7.5 7.7 7.5 7.0 6.8 6.2 5.9 6.1 6.2 6.3 6.2 6.4 6.3 6.0 5.9 5.8 5.8 5.8 6.0 6.2 6.1 6.1 6.0 5.8 5.7
5.8 5.6 5.8 5.9 5.5 5.8 5.9 6.2 6.6 6.8 6.9 6.8 6.9 6.5 6.7 7.5 7.5 7.4 7.4 7.5 7.3 7.5 7.7 7.2 7.2 6.8 6.1 6.0 6.0 6.0 5.9 6.1 6.2 5.9 5.6 5.7 5.9 5.7 5.8 6.0 6.3 6.1 5.9 5.8 5.9
5.6 6.0 5.8 5.6 5.5 5.4 5.7 6.1 6.5 6.8 7.0 6.7 6.6 6.2 6.4 8.2 7.2 7.2 7.3 7.1 7.3 7.3 7.1 6.9 6.9 7.0 6.2 5.9 5.7 5.7 5.7 6.0 6.1 5.8 5.7 5.6 5.8 5.9 6.0 5.7 5.8 5.9 5.8 5.8 5.8
5.7 5.7 5.6 5.8 5.5 5.6 5.7 6.3 6.5 6.6 6.8 6.8 6.6 6.7 7.3 7.6 7.5 7.1 7.0 7.1 7.2 7.0 6.9 6.6 6.7 6.7 6.4 6.1 6.0 5.7 5.6 5.6 5.8 5.9 5.7 5.7 6.0 5.8 6.0 6.0 5.8 5.9 5.8 5.9 5.8
5.7 5.8 5.8 5.7 5.6 5.7 6.2 6.2 6.5 6.7 7.1 7.0 6.6 7.0 7.4 7.0 6.6 6.6 6.7 7.1 7.0 6.8 6.6 6.5 6.5 6.6 6.6 6.3 5.9 5.8 5.6 5.6 5.7 5.8 5.8 5.8 5.7 5.9 6.2 6.1 5.7 5.7 5.8 5.7 5.6
5.6 5.8 5.9 5.7 5.6 6.1 6.3 6.7 6.7 6.9 7.4 6.6 6.3 6.5 6.5 6.4 6.2 6.1 6.3 6.4 6.8 6.9 6.7 6.4 6.5 6.6 6.7 6.4 6.0 5.8 5.7 5.5 5.6 5.9 6.1 5.9 5.6 5.9 5.9 6.1 6.1 5.7 5.7 5.7 5.6
5.7 5.6 5.6 5.9 6.0 6.2 6.4 6.7 7.0 6.9 7.3 6.5 6.1 6.1 6.2 6.3 6.7 6.7 6.6 6.6 6.6 6.9 6.9 6.3 6.4 6.6 6.9 6.7 6.4 6.2 5.9 5.9 5.8 5.9 5.7 5.7 5.5 6.0 5.6 5.8 5.7 5.5 5.3 5.5 5.6
5.4 5.6 5.8 6.0 6.0 6.2 6.0 6.3 6.3 5.7 6.7 6.4 6.3 6.3 6.4 6.4 6.7 6.5 6.6 6.7 6.7 6.9 6.8 6.5 6.2 6.7 6.9 6.7 6.5 6.2 6.1 5.7 5.7 5.8 5.5 5.6 5.7 6.2 5.7 5.5 5.5 5.5 5.4 5.4 5.4
5.3 5.7 5.9 6.1 6.1 6.2 6.2 6.6 6.5 6.2 6.3 6.6 6.7 6.7 6.9 6.9 6.8 6.7 7.0 7.0 7.2 6.8 6.5 6.3 6.4 6.7 6.8 6.6 6.4 6.2 6.0 5.8 5.9 5.6 5.7 5.7 5.7 6.1 6.1 5.7 5.7 5.6 5.5 5.5 5.4
5.5 5.7 6.0 6.2 6.2 6.0 6.4 6.6 6.3 6.0 6.0 6.9 7.0 7.1 7.2 7.8 7.1 6.8 7.2 7.0 6.8 6.8 7.0 6.7 6.6 6.8 6.7 6.6 6.5 6.2 6.1 6.1 5.9 5.8 5.7 5.7 5.0 6.1 6.3 6.1 6.0 5.8 5.7 5.6 5.5
5.6 5.8 6.0 5.9 6.1 5.6 6.2 6.5 6.3 6.0 4.5 7.1 7.2 7.3 7.2 7.4 7.3 7.0 6.9 6.9 6.8 6.8 6.9 6.8 6.7 6.5 6.4 6.4 6.3 6.3 6.5 6.2 6.1 5.8 5.8 5.8 5.9 5.9 6.4 6.5 6.4 6.2 5.9 5.7 5.8
5.6 5.9 5.8 5.9 6.0 5.7 6.1 6.5 6.3 6.1 4.6 7.3 7.3 7.5 7.9 7.3 7.2 7.1 6.8 7.0 7.0 6.7 6.9 7.0 6.7 6.6 6.9 6.7 6.6 6.5 6.4 6.1 6.1 6.0 4.8 6.0 6.0 5.9 6.3 6.6 6.4 6.3 6.1 5.9 5.9
5.7 5.8 5.8 6.0 5.8 5.9 6.2 6.6 6.2 6.1 6.6 6.9 7.3 7.5 7.4 7.1 7.2 7.1 6.9 7.0 6.8 6.7 6.7 6.9 7.0 6.9 6.9 6.8 6.6 6.4 6.5 5.1 5.4 4.9 4.1 5.4 5.4 6.1 6.3 6.4 6.5 6.4 6.0 5.8 5.8
5.7 5.8 5.5 5.7 5.7 6.0 6.3 6.5 6.4 6.4 6.5 7.2 7.4 7.8 7.3 7.1 7.1 7.1 7.2 6.7 6.9 6.9 7.2 7.1 7.0 6.8 6.8 6.9 6.9 6.7 6.6 6.2 4.2 3.8 4.2 5.3 4.9 6.5 6.3 6.2 6.0 6.1 6.2 5.9 5.7
5.7 5.7 5.7 5.5 5.6 6.2 6.5 6.2 6.0 6.5 6.6 7.0 7.7 7.5 7.1 6.9 6.9 7.0 7.1 6.9 7.0 6.9 7.2 7.1 7.0 6.9 6.9 6.9 7.0 6.4 6.3 6.6 6.2 5.1 4.6 5.6 5.9 6.5 6.4 6.4 6.2 6.1 6.3 6.0 5.9
5.7 5.7 5.6 5.5 5.6 6.0 6.4 6.0 6.3 7.0 7.1 7.4 7.1 7.1 7.0 6.9 6.9 6.9 7.1 6.9 7.0 7.2 7.0 7.2 7.2 6.9 6.8 6.6 6.6 6.5 6.9 6.3 6.4 4.1 4.6 4.7 5.7 6.7 6.5 6.4 6.4 6.3 6.2 6.1 6.0
5.4 5.7 5.4 5.3 5.9 6.1 6.2 6.1 6.9 7.3 7.5 7.4 7.2 7.1 7.1 6.8 6.9 7.1 7.0 6.9 7.0 7.0 6.9 6.9 7.0 6.8 6.8 6.5 6.5 6.2 6.2 6.4 6.6 6.0 3.3 3.6 6.1 6.5 6.7 6.6 6.3 6.5 6.4 6.2 6.1
5.4 5.6 5.2 5.4 6.2 6.1 6.0 6.2 7.0 7.5 7.7 7.6 7.3 7.1 7.0 6.9 7.1 7.0 6.9 6.8 6.8 7.1 7.0 6.9 7.0 6.5 6.6 6.6 6.6 6.5 6.5 6.4 6.4 4.9 4.7 5.2 6.1 6.7 6.8 6.8 6.8 6.5 6.4 6.3 6.5
5.6 5.6 5.1 5.5 6.0 6.1 6.5 6.7 6.9 7.5 7.6 7.4 7.4 7.2 7.1 6.9 7.0 6.8 6.9 6.8 6.8 6.8 6.9 6.7 6.7 6.3 6.3 6.0 5.9 6.0 6.2 6.3 6.4 6.2 5.6 5.0 6.2 6.6 6.6 6.5 6.4 6.4 6.4 6.5 6.4
5.4 5.4 5.3 5.7 6.0 5.9 6.6 7.0 7.2 7.5 7.5 7.5 7.2 7.2 7.3 7.2 7.0 6.8 6.9 6.9 6.8 6.8 6.9 6.8 6.8 6.9 6.3 6.8 6.7 6.3 6.4 6.3 6.2 6.1 6.1 6.1 6.6 6.6 6.4 6.3 6.1 6.1 6.0 6.0 6.0
5.2 5.2 5.3 5.7 6.1 6.5 6.8 7.1 7.3 7.4 7.6 7.4 7.3 7.0 6.9 7.1 7.1 6.8 6.8 6.7 6.7 6.7 6.8 6.7 6.7 6.8 6.7 6.5 6.2 6.2 6.2 6.0 6.0 6.1 6.1 6.4 6.3 6.4 6.3 6.0 5.9 5.8 5.8 5.9 5.8
5.1 5.1 5.7 6.1 6.4 6.8 7.2 7.0 7.3 7.5 7.2 7.3 7.2 7.2 6.9 6.9 6.8 6.7 6.4 6.4 6.3 6.6 6.7 6.7 6.6 6.4 6.4 6.2 6.1 5.9 5.9 5.9 5.9 6.0 6.2 6.2 6.3 6.2 5.9 5.7 5.6 5.5 5.6 5.7 5.7
5.1 5.4 5.7 6.5 6.7 6.9 7.1 7.1 7.3 7.2 7.4 7.2 7.3 7.2 7.3 7.1 6.8 6.7 6.4 6.2 6.1 6.3 6.3 6.3 6.4 6.4 6.3 6.2 6.1 6.1 6.0 6.0 6.2 6.3 6.1 6.0 6.1 6.0 5.9 5.8 5.8 5.7 5.6 5.5 5.3
Wind_Speed
23 23 23 23 23 23 24 25 25 25 25 25 26 27 26 24 25 12 10 12 10 18 8 5 4 4 3 4 5 4 2 3 4 5 5 2 3 1 2 6 3 2 4 2 15
23 23 23 24 25 26 27 26 26 25 26 26 27 25 27 26 12 17 17 19 18 9 7 10 7 7 4 7 4 5 5 9 5 3 2 0 1 6 4 4 3 3 6 9 14
23 24 25 26 26 27 27 28 29 28 27 28 25 24 22 21 8 8 5 7 19 18 7 5 5 5 5 4 6 6 7 5 4 4 1 2 1 1 7 2 5 6 9 9 14
23 24 25 26 27 27 28 28 29 29 28 27 25 20 18 7 8 3 12 27 17 11 12 6 4 6 5 6 4 4 6 6 3 2 2 1 2 1 2 2 0 7 16 10 13
24 25 27 28 29 30 30 32 31 32 32 29 25 22 5 6 14 22 31 17 6 6 16 9 6 6 6 5 4 4 4 6 4 0 1 2 3 3 4 2 6 10 12 12 11
25 26 27 27 28 30 32 33 34 33 34 31 23 19 4 17 6 10 4 10 6 4 7 10 9 7 5 4 7 4 8 4 4 4 4 5 3 2 3 6 7 9 10 9 12
24 27 29 30 31 33 33 37 37 34 29 27 24 10 9 21 4 15 13 7 6 3 5 5 5 7 7 2 4 4 3 2 5 5 4 5 4 6 6 5 8 9 8 7 7
27 28 30 31 33 35 37 35 37 36 28 21 18 3 7 3 14 10 7 7 7 7 4 6 6 4 4 4 4 4 4 2 2 6 3 7 5 4 8 6 9 9 7 8 4
27 28 31 33 34 37 36 38 36 25 14 6 2 2 8 8 2 8 6 7 2 3 3 3 5 4 3 5 3 5 4 3 4 7 3 5 3 3 4 6 9 8 7 7 6
27 29 31 33 34 35 30 34 22 7 12 3 2 2 5 3 3 14 4 8 3 5 4 3 3 4 2 5 9 4 4 1 3 1 3 3 5 4 1 4 8 6 6 7 7
28 29 32 33 34 30 16 4 8 5 10 7 15 9 15 11 10 5 4 1 4 5 6 2 4 10 13 5 6 6 4 4 2 3 3 6 6 10 2 5 6 5 6 4 6
29 30 31 34 33 15 5 5 7 9 14 10 17 10 16 9 7 6 3 5 5 10 6 4 5 3 8 7 6 4 4 4 3 3 4 1 6 7 3 2 1 6 6 6 6
29 31 31 34 24 4 2 1 11 6 5 10 5 4 6 5 4 4 2 4 11 4 4 5 1 8 7 5 7 4 7 5 4 3 2 2 5 2 1 2 3 3 3 4 5
30 31 32 31 5 4 4 6 12 1 4 6 5 3 3 3 3 4 6 2 4 8 7 2 4 4 6 5 6 6 7 8 5 2 3 3 4 4 1 3 1 2 4 6 5
31 32 32 11 2 4 5 15 11 1 4 11 7 3 10 1 5 3 5 5 2 3 6 7 7 4 2 5 5 3 5 6 4 4 2 2 3 6 3 4 6 5 5 6 4
32 32 27 4 2 4 14 8 3 5 4 7 6 9 9 4 6 4 2 5 3 7 2 3 4 6 8 3 7 11 8 7 5 2 1 4 4 5 3 5 2 4 5 7 5
32 33 8 3 4 13 7 4 4 5 5 9 8 12 10 5 5 6 1 3 2 4 2 2 3 5 3 9 5 4 6 2 2 1 4 3 2 7 2 2 3 6 7 7 3
32 20 7 3 14 11 3 5 6 3 5 5 6 14 4 7 3 6 1 2 2 2 3 5 2 2 4 3 7 5 5 5 6 3 3 2 5 5 2 3 2 2 4 6 4
25 4 4 4 15 1 5 5 4 4 5 8 12 4 5 3 1 5 4 1 1 2 4 4 2 4 3 1 3 4 2 4 7 1 3 3 6 3 2 5 4 5 4 4 3
3 3 4 16 10 4 5 3 3 4 7 3 4 4 5 6 6 3 3 5 4 0 1 2 4 4 3 2 7 2 5 4 3 3 3 4 4 4 2 3 5 3 5 4 3
4 4 4 21 3 5 3 3 5 8 9 3 3 4 5 5 4 5 7 2 5 1 2 4 3 2 3 1 6 2 2 5 5 3 5 1 5 4 5 6 8 7 6 5 4
2 3 5 7 5 2 2 4 7 8 4 4 3 3 4 7 3 4 4 5 10 3 2 1 5 3 1 2 3 2 4 4 4 4 2 3 4 2 6 5 6 7 5 4 4
2 2 4 4 4 3 6 5 4 6 7 6 4 5 3 5 5 5 5 6 10 7 2 2 2 3 2 3 3 2 3 4 5 3 6 5 4 1 1 3 3 6 6 5 4
2 4 4 4 1 2 5 5 8 7 4 6 4 5 6 3 2 4 7 3 4 6 9 2 3 4 4 5 2 3 1 3 4 3 4 5 2 1 2 3 4 6 6 5 5
3 1 1 4 4 6 0 5 7 8 4 4 3 5 7 4 6 5 4 6 3 10 4 3 3 3 4 3 2 2 4 4 3 4 5 4 6 5 5 7 7 3 1 1 3
2 2 2 2 3 5 5 3 8 9 3 6 5 10 4 2 3 4 5 3 2 6 4 5 3 2 4 5 6 1 1 3 1 2 4 3 5 7 2 2 4 3 1 2 3
0 2 3 2 2 3 2 5 9 15 5 7 9 9 3 3 4 2 2 3 2 1 4 4 3 3 2 4 4 4 5 4 2 3 5 3 2 1 2 4 3 3 5 4 3
Wind_Direction
3 358 355 354 350 347 345 342 337 335 332 327 324 321 324 321 319 308 252 223 195 224 158 120 129 177 109 140 128 136 103 213 240 158 254 184 143 72 107 112 89 85 128 285 131
360 356 352 351 349 345 343 339 335 330 328 327 326 321 318 327 316 281 256 254 240 198 175 164 181 153 166 166 170 146 162 210 206 207 260 246 210 148 132 124 106 78 55 114 132
358 358 355 351 346 342 339 336 331 325 322 322 321 320 322 328 310 249 319 3 236 229 174 157 128 152 176 143 188 181 191 199 223 209 153 117 47 345 127 194 194 177 148 143 147
359 356 351 348 345 341 335 330 324 319 317 318 316 319 319 325 284 266 337 338 328 184 148 135 136 168 179 192 195 161 207 165 206 148 102 63 131 61 246 213 69 161 154 149 162
356 353 350 346 342 338 332 327 322 317 313 311 308 306 316 260 250 282 306 340 339 143 192 167 159 143 187 195 138 216 210 193 222 247 238 99 253 242 218 151 75 127 150 159 164
355 350 345 342 338 333 328 323 317 311 308 306 301 289 205 261 264 277 292 353 330 189 188 162 187 180 180 208 181 212 195 179 169 187 182 161 237 116 281 141 115 145 173 170 168
350 347 344 341 338 334 329 323 315 308 308 301 292 271 197 240 297 286 292 305 276 248 190 211 180 153 144 188 210 148 135 155 187 173 210 138 259 219 234 170 163 182 181 185 166
348 348 345 341 337 335 329 322 315 313 309 296 288 164 242 225 268 286 282 265 238 223 214 194 161 117 153 123 46 112 70 161 301 154 208 141 258 234 222 168 213 209 187 179 162
346 345 343 341 339 337 331 321 318 323 351 343 41 132 261 309 262 259 221 245 196 180 188 114 135 155 104 111 64 5 177 184 314 183 128 184 237 278 167 189 217 206 196 146 126
345 344 343 341 338 337 332 321 317 343 2 331 223 252 268 293 333 317 316 256 176 131 142 122 99 123 74 168 212 190 124 138 192 169 168 199 252 273 41 170 216 203 158 147 135
344 345 341 337 337 337 339 3 9 344 348 262 265 269 285 284 277 264 339 242 161 153 157 130 141 202 194 179 141 140 128 164 241 250 184 226 236 252 239 81 109 130 141 125 109
346 342 338 335 335 340 355 54 15 303 311 291 256 237 256 267 300 299 52 192 193 178 119 111 220 169 153 155 145 143 141 181 297 287 170 191 257 258 190 134 122 162 170 154 120
343 340 337 335 335 17 346 355 337 321 283 297 262 256 256 126 233 287 343 329 160 129 129 161 222 164 149 148 147 161 193 155 202 1 48 310 300 278 35 73 98 33 124 119 136
340 339 338 336 50 305 321 333 330 272 294 280 334 307 300 191 287 166 66 15 356 159 146 231 178 136 155 163 146 183 191 179 205 193 224 4 264 286 118 263 218 141 154 144 133
338 337 338 352 266 323 296 337 321 75 8 322 307 283 323 316 309 62 123 139 162 176 145 218 156 129 296 167 139 213 139 146 98 105 14 329 67 270 24 274 222 189 168 157 156
336 337 338 6 326 263 332 340 46 37 281 321 320 331 343 356 350 125 120 68 295 176 40 150 134 158 190 105 147 162 91 61 71 95 14 244 136 272 209 212 102 135 163 157 143
335 336 346 338 292 325 332 54 26 96 349 332 327 330 323 322 342 9 142 153 181 116 118 57 79 327 105 82 49 120 86 56 42 25 214 307 51 251 226 102 172 188 167 162 137
335 337 321 277 317 322 38 57 51 284 284 304 298 316 329 359 347 339 207 144 195 61 112 155 163 4 4 141 156 146 165 150 173 184 235 83 234 256 24 1 321 167 143 143 127
338 335 345 305 338 358 62 52 215 266 317 312 315 347 325 357 314 331 351 60 248 167 123 128 41 319 30 86 139 176 154 151 105 326 58 228 286 334 39 43 79 109 111 180 263
351 345 298 329 331 53 65 349 292 329 304 281 314 21 317 324 345 337 2 10 333 55 184 179 90 346 320 97 28 133 153 87 7 125 234 287 272 244 239 174 151 156 185 246 283
36 24 274 332 38 42 77 271 295 294 328 283 310 297 287 317 300 341 0 59 345 76 82 118 76 313 330 52 165 118 26 57 103 110 158 219 272 216 229 205 186 203 217 222 244
32 17 313 345 49 20 6 296 295 308 360 310 290 292 309 312 331 342 11 346 346 332 139 43 131 117 165 293 296 125 165 139 124 236 88 140 276 267 258 235 183 208 229 249 241
13 292 320 48 63 339 320 302 286 315 330 346 311 7 309 298 329 13 8 353 10 13 42 169 341 89 77 10 1 212 148 113 108 91 187 140 261 166 92 104 216 197 234 256 268
44 3 328 41 72 92 344 310 332 301 300 336 287 308 327 323 322 318 349 31 21 359 47 30 89 143 173 204 130 158 113 144 114 126 167 221 241 231 174 178 221 246 248 256 267
40 280 284 334 345 344 75 328 323 344 329 330 317 1 343 318 337 2 337 341 1 360 46 64 90 93 42 31 59 141 165 168 145 161 160 242 195 259 240 215 220 250 295 236 289
81 59 324 315 325 4 348 317 314 326 278 315 309 335 335 353 5 323 326 24 3 330 49 356 98 88 8 30 26 2 82 114 87 167 292 129 272 222 226 190 283 282 213 218 259
33 295 115 334 29 27 264 348 311 317 272 243 293 302 334 7 340 323 76 63 6 105 16 51 103 53 274 6 354 343 227 196 199 245 153 189 236 77 302 290 285 271 200 224 274